Regional Weather Roundup
Issued by NWS Little Rock, AR

Home | Current Version | Previous Version | Text Only | Print | Product List | Glossary On
Versions: 1 2 3 4 5 6 7 8 9 10 11 12 13 14 15 16 17 18 19 20 21 22 23 24 25 26 27 28
000
ASUS44 KLZK 282005
RWRLZK

WEATHER ROUNDUP FOR ARKANSAS
NATIONAL WEATHER SERVICE LITTLE ROCK AR
300 PM CDT SAT MAY 28 2016

NOTE: "FAIR" INDICATES FEW OR NO CLOUDS BELOW 12,000 FEET WITH NO
SIGNIFICANT WEATHER AND/OR OBSTRUCTIONS TO VISIBILITY.

ARZ001-003-010-029-282100-
NORTHWEST ARKANSAS

CITY           SKY/WX    TMP DP  RH WIND       PRES   REMARKS
FAYETTEVILLE   SUNNY     80  67  64 SW10      29.97S
FORT SMITH     SUNNY     83  65  54 SE7       29.95F HX  85
HARRISON       MOSUNNY   83  67  58 S12G17    29.98S HX  85
BENTONVILLE    CLOUDY    75  63  64 SW6       29.99S
ROGERS         MOSUNNY   79  66  64 SW12      29.99R
SILOAM SPGS    PTSUNNY   77  61  57 S10       29.99S
HIGHFILL       CLOUDY    77  67  71 VRB3      29.98S
SPRINGDALE     MOSUNNY   79  64  61 SW7G15    30.00R
$$

ARZ004-005-016-282100-
NORTH CENTRAL ARKANSAS

CITY           SKY/WX    TMP DP  RH WIND       PRES   REMARKS
BATESVILLE     PTSUNNY   82  66  57 S9        30.00S HX  85
FLIPPIN        MOSUNNY  N/A N/A N/A SW7       29.94R
MTN HOME       MOSUNNY   83  67  58 S8        29.96S HX  85
$$

ARZ040-041-282100-
WEST CENTRAL ARKANSAS

CITY           SKY/WX    TMP DP  RH WIND       PRES   REMARKS
MENA           SUNNY     81  70  69 E3        30.01F
MOUNT IDA      PTSUNNY   76  65  68 VRB6      29.99S
$$

ARZ009-017-025-026-028-282100-
NORTHEAST ARKANSAS

CITY           SKY/WX    TMP DP  RH WIND       PRES   REMARKS
CORNING        LGT RAIN  82  70  65 SW14      30.00S HX  86
JONESBORO      CLOUDY    81  68  64 S12       30.00R
NEWPORT        PTSUNNY   83  68  60 S13       30.01S HX  86
WALNUT RIDGE   CLOUDY    82  66  57 S16       29.99S HX  85
BLYTHEVILLE    CLOUDY    83  68  60 S12       30.00F HX  86
$$

ARZ022-023-033-042-044-282100-
CENTRAL ARKANSAS

CITY           SKY/WX    TMP DP  RH WIND       PRES   REMARKS
LITTLE ROCK    PTSUNNY   83  65  54 SW9       30.00S HX  85
N LITTLE ROCK    N/A     82  68  62 S6        29.98S HX  85
JACKSONVILLE   MOSUNNY   83  67  59 VRB7      29.99S HX  85
SEARCY         CLOUDY    82  68  61 S12       30.01F HX  85
HOT SPRINGS    CLOUDY    77  64  64 SW7       30.02S
RUSSELLVILLE   PTSUNNY   80  66  62 SE6       29.99S
CLINTON        PTSUNNY   81  68  65 S7        30.00S
$$

ARZ036-282100-
EAST ARKANSAS

CITY           SKY/WX    TMP DP  RH WIND       PRES   REMARKS
WEST MEMPHIS   PTSUNNY   82  70  66 S13       30.00R HX  86
$$

ARZ050-053-066-070-073-282100-
SOUTHWEST ARKANSAS

CITY           SKY/WX    TMP DP  RH WIND       PRES   REMARKS
ARKADELPHIA    MOCLDY    80  68  67 VRB5      30.02S
CAMDEN         CLOUDY    84  64  51 SE5       30.00S HX  86
TEXARKANA      PTSUNNY   77  67  71 NE5       30.01S
EL DORADO      CLOUDY    81  68  64 VRB3      30.00S
DE QUEEN       MOSUNNY   78  68  71 E7        29.98F
$$

ARZ056-057-069-282100-
SOUTHEAST ARKANSAS

CITY           SKY/WX    TMP DP  RH WIND       PRES   REMARKS
PINE BLUFF     PTSUNNY   82  68  62 VRB7      30.00S HX  85
STUTTGART      CLOUDY    82  63  51 S8        30.01S
MONTICELLO     PTSUNNY   83  66  56 SW7       30.00S HX  85

$$






USA.gov is the U.S. government's official web portal to all federal, state and local government web resources and services.